Hourly Data Report for October 29, 2015

All times are specified in Local Standard Time (LST). Add 1 hour to adjust for Daylight Saving Time where and when it is observed.

PANGNIRTUNG
NUNAVUT

66°08'36.300" N
65°42'40.500" W
22.60 m
2403049
71826
WXP

Download Data

Hourly Data (October 2015)
Hourly Data Report for October 29, 2015
Temp Definition
°C
Dew Point Temp Definition
°C
Rel Hum Definition
%
Wind Dir Definition
10's deg

Wind Spd Definition
km/h
Visibility Definition
km
Stn Press Definition
kPa
Hmdx Definition


Wind Chill Definition


Weather Definition


TIME
00:00 -12.9 -16.1 77 19 3   100.61   -15 LegendNANA
01:00 -12.5 -15.0 81 14 7   100.61   -17 LegendNANA
02:00 -13.5 -16.3 80 13 6   100.60   -18 LegendNANA
03:00 -14.0 -17.7 73 13 4   100.62   -17 LegendNANA
04:00 -13.9 -18.5 68 16 5   100.63   -17 LegendNANA
05:00 -13.8 -18.0 70 14 5   100.66   -17 LegendNANA
06:00 -15.0 -21.2 59 13 10   100.63   -21 LegendNANA
07:00 -15.0 -20.6 62 12 12   100.63   -22 LegendNANA
08:00 -14.7 -22.3 53 12 12   100.61   -22 LegendNANA
09:00 -15.6 -22.8 54 11 9   100.59   -22 LegendNANA
10:00 -15.3 -22.0 56 11 13   100.58   -23 LegendNANA
11:00 -14.8 -19.2 69 25 3   100.58   -17 LegendNANA
12:00 -14.9 -20.6 61 17 2   100.54   -16 LegendNANA
13:00 -14.6 -19.9 64 12 9   100.50   -20 LegendNANA
14:00 -15.6 -24.1 48 9 9   100.44   -22 LegendNANA
15:00 -14.8 -24.3 44 11 12   100.41   -22 LegendNANA
16:00 -14.8 -23.0 49 10 6   100.39   -19 LegendNANA
17:00 -15.5 -23.1 52 8 8   100.37   -21 LegendNANA
18:00 -15.5 -24.9 44 10 12   100.29   -23 LegendNANA
19:00 -14.1 -24.9 39 10 5   100.27   -18 LegendNANA
20:00 -15.1 -25.0 42 7 3   100.22   -17 LegendNANA
21:00 -14.6 -23.1 48 7 10   100.20   -21 LegendNANA
22:00 -14.0 -24.9 39 7 3   100.15   -16 LegendNANA
23:00 -14.7 -25.0 41 6 6   100.07   -19 LegendNANA

Notes on Data Quality.

Legend

  • E = Estimated
  • M = Missing
  • NA = Not Available
  • ‡ = Partner data that is not subject to review by the National Climate Archives
Date modified: